STARLINK-36321, 68046

Orbit data source: Space-Track

STARLINK-36321, 68046 is a payload satellite owned by SpaceX/Seattle (US) in LEO that was launched on Mon, 02 Mar 2026 UTC via an FALCON 9 launch vehicle from the Air Force Eastern Test Range (AFETR). Payload-class satellites include a variety of spacecraft equipped with specific instruments for various scientific and technological missions. These include communications satellites like Starlink; space stations such as the ISS; scientific satellites like the Hubble; Earth observation satellites from companies like Planet Labs, Umbra, and HawkEye 360; GPS; miniature CubeSats for education and research; and military/defense satellites.

Loading next visibility...
Identifier
68046, 2026-041G
Orbit
LEO
Country
Flag of USUS
Related business
Manufacturer
SpaceX/Seattle
Mission
Operational Commercial Communications
Bus & Motor
STARLINK V2MO, Unknown motor
Mass
575 kg wet, ~530 kg dry
Launch date (UTC)
2026-03-02 (2 months ago)
Launch vehicle
FALCON 9
Launch site
Air Force Eastern Test Range (AFETR)
Object type
Payload
Rocket body
Debris
Shape & HBR
Box + 2 Pan, 17.7 m
Radar Cross Section
36.964 m²

Expand to show TLE details & history
Last TLE update: 23 hours ago

TLE from 23 hours ago
0 STARLINK-36321
1 68046U 26041G   26118.45738082  .00028845  00000-0  98252-3 0  9998
2 68046  53.1581 179.0176 0001457  86.8165 273.3002 15.30190434  9007
Epoch: 2026-04-28T10:58Z
TLE epoch observation values (Epoch: 2026-04-28T10:58:37.702Z)
Latitude
-0.00007°
Longitude
157.92804°
Altitude
476.086 km
Speed
7.629 km/s
True Right ascension
11h 56m 04s
True Declination
0° 00' 00"
Sunlit
Object was in full shadow at epoch
Visualization orbit readout
Latitude
Unknown
Longitude
Unknown
Altitude
Unknown
Speed
Unknown
Apparent Right ascension
Unknown
Apparent Declination
Unknown
Sunlit
N/A
Visualization observer readout
Local Sidereal Time
17:08:48
Azimuth
Unknown
Elevation
Unknown
Doppler factor
Unknown
Orbital elements
Apogee altitude
476.499 km
Perigee altitude
474.502 km
Semi-major axis
6,853.637 km
Eccentricity
0.00015
Inclination
53.1581°
RAAN
179.0176°
Arg. of periapsis
86.8165°
True anomaly
273.28353°
Mean anomaly
273.3002°
Eccentric anomaly
273.29187°
Mean motion
3.82526 °/min
Orbital period
94.11 mins
BSTAR
0.00098252
Loading maneuver chart data...
Computing Atmospheric mass density...
Loading historical data...
Loading historical data...
Loading historical data...
Loading historical data...
Loading historical data...
Loading historical data...
Loading historical data...

Documentation

Showing up to 5 results
|